This is the latest recevied weather packets stored in our database for station/object AB8Y-13. If no packets are shown the sender has not sent any weather packets the latest 10 day(s).
| Time | Temp. | Humidity | Pressure | Rain* | Wind** | Luminosity | Snow |
|---|---|---|---|---|---|---|---|
| 1777213487 | 12.78° C | 56% | 1022.7 hPa | 0 mm | - | 630 W/m² | - |
| 1777213184 | 13.33° C | 61% | 1022.7 hPa | 0 mm | - | 614 W/m² | - |
| 1777212880 | 13.33° C | 58% | 1022.4 hPa | 0 mm | - | 597 W/m² | - |
| 1777212578 | 12.78° C | 63% | 1022.6 hPa | 0 mm | - | 579 W/m² | - |
| 1777212276 | 12.78° C | 63% | 1022.5 hPa | 0 mm | - | 563 W/m² | - |
| 1777211972 | 12.78° C | 61% | 1022.6 hPa | 0 mm | - | 545 W/m² | - |
| 1777211667 | 12.78° C | 63% | 1022.5 hPa | 0 mm | - | 527 W/m² | - |
| 1777211362 | 12.22° C | 65% | 1022.5 hPa | 0 mm | - | 510 W/m² | - |
| 1777211058 | 12.22° C | 68% | 1022.6 hPa | 0 mm | - | 488 W/m² | - |
| 1777210755 | 11.67° C | 67% | 1022.4 hPa | 0 mm | - | 473 W/m² | - |
| 1777210454 | 11.67° C | 70% | 1022.4 hPa | 0 mm | - | 455 W/m² | - |
| 1777210151 | 11.67° C | 69% | 1022.4 hPa | 0 mm | - | 383 W/m² | - |
| 1777209848 | 11.11° C | 70% | 1022.5 hPa | 0 mm | - | 410 W/m² | - |
| 1777209543 | 11.11° C | 71% | 1022.4 hPa | 0 mm | - | 388 W/m² | - |
| 1777209238 | 10.56° C | 72% | 1022.6 hPa | 0 mm | - | 391 W/m² | - |
| 1777208936 | 10.56° C | 73% | 1022.4 hPa | 0 mm | - | 379 W/m² | - |
| 1777208631 | 11.11° C | 74% | 1022.6 hPa | 0 mm | - | 337 W/m² | - |
| 1777208328 | 10.56° C | 74% | 1022.7 hPa | 0 mm | - | 324 W/m² | - |
| 1777208024 | 10° C | 76% | 1022.5 hPa | 0 mm | - | 301 W/m² | - |
| 1777207719 | 10° C | 77% | 1022.4 hPa | 0 mm | - | 271 W/m² | - |
| 1777207415 | 9.44° C | 77% | 1022.6 hPa | 0 mm | - | 240 W/m² | - |
| 1777207114 | 9.44° C | 78% | 1022.7 hPa | 0 mm | - | 198 W/m² | - |
| 1777206810 | 8.89° C | 80% | 1022.5 hPa | 0 mm | - | 143 W/m² | - |
| 1777206510 | 8.89° C | 81% | 1022.5 hPa | 0 mm | - | 167 W/m² | - |
| 1777206206 | 8.89° C | 81% | 1022.5 hPa | 0 mm | - | 150 W/m² | - |
* Rain latest hour (hover to see other rain measurements)
** Current wind speed in m/s (hover to see current wind gust speed)